When you browse on this site, cookies collect data to enhance your experience and personalize the content and advertising you see.
Visit our Privacy Policy to learn more. By continuing to use the site, you agree to this use of cookies and data.
  • In Österreich
  • Länderverzeichnis
  • Für 7 Tage
  • Wassertemperatur
  • Satellitenkarten
  • Wetterkarte
  • News
  • Widgets
  • user-avatar
    Anmelden

    Stündliche Wetter Kerkira

    Heute, 18 November, Sonntag

    Zeit Temperatur Niederschläge Wind Luftdruck Luftfeuchtigkeit
    00:00 +9°C° 2.3 mm 5 m/S 762 mmHg 83%
    01:00 +9°C° 2.3 mm 5 m/S 762 mmHg 84%
    02:00 +9°C° 3.5 mm 6 m/S 761 mmHg 85%
    03:00 +8°C° 3.5 mm 6 m/S 761 mmHg 86%
    04:00 +8°C° 3.5 mm 7 m/S 760 mmHg 87%
    05:00 +8°C° 3.5 mm 7 m/S 760 mmHg 87%
    06:00 +8°C° 3.5 mm 7 m/S 760 mmHg 87%
    07:00 +7°C° 3.5 mm 8 m/S 759 mmHg 88%
    08:00 +8°C° 2.8 mm 7 m/S 759 mmHg 87%
    09:00 +8°C° 2.8 mm 7 m/S 759 mmHg 87%
    10:00 +9°C° 2.8 mm 7 m/S 759 mmHg 86%
    11:00 +8°C° 2.3 mm 6 m/S 758 mmHg 87%
    12:00 +8°C° 2.3 mm 6 m/S 758 mmHg 87%
    13:00 +8°C° 2.3 mm 6 m/S 758 mmHg 88%
    14:00 +8°C° 1.3 mm 6 m/S 757 mmHg 88%
    15:00 +8°C° 1.3 mm 5 m/S 757 mmHg 87%
    16:00 +8°C° 1.3 mm 5 m/S 757 mmHg 87%
    17:00 +9°C° 0.4 mm 5 m/S 757 mmHg 87%
    18:00 +10°C° 0.4 mm 4 m/S 757 mmHg 86%
    19:00 +10°C° 0.4 mm 4 m/S 757 mmHg 86%
    20:00 +10°C° 0.1 mm 3 m/S 757 mmHg 86%
    21:00 +10°C° 0.1 mm 3 m/S 757 mmHg 86%
    22:00 +10°C° 0.1 mm 2 m/S 757 mmHg 86%
    23:00 +10°C° 0 mm 2 m/S 757 mmHg 85%

    Morgen, 19 November, Montag

    Zeit Temperatur Niederschläge Wind Luftdruck Luftfeuchtigkeit
    00:00 +10°C° 0 mm 2 m/S 757 mmHg 85%
    01:00 +10°C° 0 mm 2 m/S 757 mmHg 84%
    02:00 +9°C° 0 mm 2 m/S 757 mmHg 84%
    03:00 +9°C° 0 mm 2 m/S 757 mmHg 84%
    04:00 +9°C° 0 mm 2 m/S 757 mmHg 85%
    05:00 +9°C° 0 mm 2 m/S 758 mmHg 85%
    06:00 +9°C° 0 mm 2 m/S 758 mmHg 85%
    07:00 +10°C° 0 mm 2 m/S 758 mmHg 85%
    08:00 +12°C° 0 mm 2 m/S 759 mmHg 80%
    09:00 +14°C° 0 mm 2 m/S 759 mmHg 76%
    10:00 +15°C° 0 mm 2 m/S 759 mmHg 71%
    11:00 +16°C° 0 mm 2 m/S 759 mmHg 68%
    12:00 +17°C° 0 mm 2 m/S 759 mmHg 65%
    13:00 +17°C° 0 mm 3 m/S 759 mmHg 63%
    14:00 +17°C° 0 mm 3 m/S 759 mmHg 67%
    15:00 +15°C° 0 mm 4 m/S 759 mmHg 72%
    16:00 +14°C° 0 mm 4 m/S 759 mmHg 76%
    17:00 +14°C° 0.4 mm 5 m/S 760 mmHg 78%
    18:00 +14°C° 0.4 mm 6 m/S 760 mmHg 80%
    19:00 +13°C° 0.4 mm 6 m/S 760 mmHg 82%
    20:00 +12°C° 0.4 mm 7 m/S 760 mmHg 80%
    21:00 +12°C° 0.4 mm 7 m/S 760 mmHg 78%
    22:00 +12°C° 0.4 mm 8 m/S 760 mmHg 76%
    23:00 +12°C° 0.1 mm 8 m/S 760 mmHg 74%

    übermorgen, 20 November, Dienstag

    Zeit Temperatur Niederschläge Wind Luftdruck Luftfeuchtigkeit
    00:00 +13°C° 0.1 mm 8 m/S 760 mmHg 73%
    01:00 +13°C° 0.1 mm 9 m/S 759 mmHg 71%
    02:00 +13°C° 0.4 mm 9 m/S 759 mmHg 71%
    03:00 +12°C° 0.4 mm 9 m/S 759 mmHg 70%
    04:00 +12°C° 0.4 mm 9 m/S 759 mmHg 69%
    05:00 +12°C° 0.8 mm 9 m/S 759 mmHg 69%
    06:00 +12°C° 0.8 mm 9 m/S 759 mmHg 69%
    07:00 +12°C° 0.8 mm 9 m/S 759 mmHg 69%
    08:00 +13°C° 1.8 mm 9 m/S 759 mmHg 73%
    09:00 +13°C° 1.8 mm 9 m/S 759 mmHg 78%
    10:00 +13°C° 1.8 mm 9 m/S 759 mmHg 82%
    11:00 +15°C° 1.2 mm 9 m/S 759 mmHg 81%
    12:00 +16°C° 1.2 mm 9 m/S 758 mmHg 79%
    13:00 +16°C° 1.2 mm 9 m/S 758 mmHg 78%
    14:00 +16°C° 0.9 mm 9 m/S 758 mmHg 79%
    15:00 +16°C° 0.9 mm 9 m/S 758 mmHg 80%
    16:00 +16°C° 0.9 mm 9 m/S 757 mmHg 81%
    17:00 +16°C° 1.8 mm 10 m/S 757 mmHg 83%
    18:00 +16°C° 1.8 mm 10 m/S 757 mmHg 86%
    19:00 +14°C° 1.8 mm 10 m/S 757 mmHg 88%
    20:00 +14°C° 2.8 mm 10 m/S 757 mmHg 89%
    21:00 +15°C° 2.8 mm 9 m/S 757 mmHg 90%
    22:00 +15°C° 2.8 mm 9 m/S 757 mmHg 91%
    23:00 +15°C° 3.5 mm 8 m/S 757 mmHg 92%

    21 November, Mittwoch

    Zeit Temperatur Niederschläge Wind Luftdruck Luftfeuchtigkeit
    00:00 +15°C° 3.5 mm 8 m/S 756 mmHg 92%
    01:00 +15°C° 3.5 mm 7 m/S 756 mmHg 93%
    02:00 +15°C° 1.7 mm 7 m/S 756 mmHg 92%
    03:00 +15°C° 1.7 mm 7 m/S 756 mmHg 91%
    04:00 +15°C° 1.7 mm 6 m/S 757 mmHg 90%
    05:00 +14°C° 0.9 mm 6 m/S 757 mmHg 91%
    06:00 +14°C° 0.9 mm 5 m/S 758 mmHg 91%
    07:00 +14°C° 0.9 mm 5 m/S 758 mmHg 92%
    08:00 +15°C° 0.1 mm 5 m/S 759 mmHg 88%
    09:00 +17°C° 0.1 mm 4 m/S 759 mmHg 84%
    10:00 +18°C° 0.1 mm 4 m/S 760 mmHg 81%
    11:00 +18°C° 0 mm 4 m/S 760 mmHg 79%
    12:00 +18°C° 0 mm 4 m/S 760 mmHg 77%
    13:00 +17°C° 0 mm 5 m/S 760 mmHg 76%
    14:00 +18°C° 0.1 mm 4 m/S 760 mmHg 78%
    15:00 +17°C° 0.1 mm 4 m/S 761 mmHg 80%
    16:00 +15°C° 0.1 mm 4 m/S 761 mmHg 83%
    17:00 +15°C° 0 mm 4 m/S 762 mmHg 84%
    18:00 +14°C° 0 mm 4 m/S 762 mmHg 86%
    19:00 +13°C° 0 mm 4 m/S 763 mmHg 88%
    20:00 +13°C° 0 mm 3 m/S 763 mmHg 88%
    21:00 +12°C° 0 mm 3 m/S 763 mmHg 89%
    22:00 +13°C° 0 mm 2 m/S 764 mmHg 89%
    23:00 +13°C° 0 mm 2 m/S 764 mmHg 88%

    22 November, Donnerstag

    Zeit Temperatur Niederschläge Wind Luftdruck Luftfeuchtigkeit
    00:00 +12°C° 0 mm 2 m/S 764 mmHg 87%
    01:00 +12°C° 0 mm 2 m/S 764 mmHg 85%
    02:00 +12°C° 0 mm 2 m/S 764 mmHg 83%
    03:00 +12°C° 0 mm 2 m/S 764 mmHg 80%
    04:00 +12°C° 0 mm 2 m/S 764 mmHg 78%
    05:00 +12°C° 0 mm 2 m/S 764 mmHg 77%
    06:00 +12°C° 0 mm 2 m/S 764 mmHg 77%
    07:00 +12°C° 0 mm 2 m/S 764 mmHg 76%
    08:00 +14°C° 0 mm 2 m/S 765 mmHg 72%
    09:00 +16°C° 0 mm 1 m/S 765 mmHg 68%
    10:00 +19°C° 0 mm 1 m/S 765 mmHg 65%
    11:00 +19°C° 0 mm 1 m/S 765 mmHg 64%
    12:00 +20°C° 0 mm 1 m/S 764 mmHg 64%
    13:00 +21°C° 0 mm 1 m/S 764 mmHg 63%
    14:00 +20°C° 0 mm 1 m/S 764 mmHg 69%
    15:00 +19°C° 0 mm 1 m/S 764 mmHg 74%
    16:00 +18°C° 0 mm 1 m/S 765 mmHg 80%
    17:00 +16°C° 0 mm 1 m/S 765 mmHg 82%
    18:00 +15°C° 0 mm 1 m/S 765 mmHg 85%
    19:00 +15°C° 0 mm 1 m/S 765 mmHg 88%
    20:00 +14°C° 0 mm 1 m/S 766 mmHg 88%
    21:00 +14°C° 0 mm 1 m/S 766 mmHg 88%
    22:00 +14°C° 0 mm 1 m/S 766 mmHg 88%
    23:00 +14°C° 0 mm 1 m/S 766 mmHg 87%

    23 November, Freitag

    Zeit Temperatur Niederschläge Wind Luftdruck Luftfeuchtigkeit
    00:00 +13°C° 0 mm 1 m/S 766 mmHg 87%
    01:00 +13°C° 0 mm 1 m/S 766 mmHg 86%
    02:00 +13°C° 0 mm 1 m/S 766 mmHg 84%
    03:00 +13°C° 0 mm 2 m/S 766 mmHg 83%
    04:00 +13°C° 0 mm 2 m/S 766 mmHg 82%
    05:00 +13°C° 0 mm 2 m/S 767 mmHg 81%
    06:00 +13°C° 0 mm 2 m/S 767 mmHg 79%
    07:00 +13°C° 0 mm 2 m/S 767 mmHg 78%
    08:00 +14°C° 0 mm 2 m/S 767 mmHg 72%
    09:00 +16°C° 0 mm 1 m/S 767 mmHg 65%
    10:00 +19°C° 0 mm 1 m/S 768 mmHg 59%
    11:00 +20°C° 0 mm 1 m/S 767 mmHg 57%
    12:00 +20°C° 0 mm 1 m/S 767 mmHg 55%
    13:00 +21°C° 0 mm 1 m/S 767 mmHg 53%
    14:00 +20°C° 0 mm 1 m/S 767 mmHg 58%
    15:00 +19°C° 0 mm 1 m/S 767 mmHg 64%
    16:00 +18°C° 0 mm 1 m/S 767 mmHg 69%
    17:00 +16°C° 0 mm 1 m/S 767 mmHg 72%
    18:00 +16°C° 0 mm 1 m/S 768 mmHg 74%
    19:00 +15°C° 0 mm 1 m/S 768 mmHg 76%
    20:00 +14°C° 0 mm 1 m/S 768 mmHg 76%
    21:00 +14°C° 0 mm 1 m/S 768 mmHg 77%
    22:00 +14°C° 0 mm 1 m/S 769 mmHg 77%
    23:00 +14°C° 0 mm 1 m/S 768 mmHg 77%
    Mehr zeigen